Location: Владивосток
(43.1151°N, 131.8856°E)
Time: 06:26:53
(UTC+10:00)

ESTCUBE 1 - Visible Passes

Search period start: 28 June 2022 00:00
Search period end: 08 July 2022 00:00
Orbit: 644 x 659 km, 97.9° (Epoch: 27 June)

Date Brightness Start Highest point End Pass type
(mag) Time Alt. Az. Time Alt. Az. Time Alt. Az.
28 Jun ? 00:52:49 10° W 00:53:18 10° W 00:53:47 10° W visible
28 Jun ? 22:03:59 10° ESE 22:06:43 16° ENE 22:09:29 10° NNE visible
28 Jun ? 23:41:35 37° SSW 23:43:02 54° W 23:47:25 10° NNW visible
29 Jun ? 22:31:04 18° ESE 22:33:28 29° ENE 22:37:18 10° N visible
30 Jun ? 00:08:54 24° SW 00:10:10 28° W 00:14:02 10° NW visible
30 Jun ? 22:58:23 30° SE 23:00:20 53° ENE 23:04:41 10° N visible
01 Jul ? 00:36:13 14° WSW 00:37:24 15° W 00:40:01 10° NW visible
01 Jul ? 21:49:40 10° E 21:51:12 12° ENE 21:52:44 10° NE visible
01 Jul ? 23:25:42 40° S 23:27:17 80° WSW 23:31:47 10° NNW visible
02 Jul ? 22:15:12 13° ESE 22:17:53 21° ENE 22:21:11 10° NNE visible
02 Jul ? 23:53:01 32° SW 23:54:20 41° W 23:58:35 10° NNW visible
03 Jul ? 22:42:31 23° ESE 22:44:39 37° ENE 22:48:47 10° N visible
04 Jul ? 00:20:20 20° WSW 00:21:30 22° W 00:24:58 10° NW visible
04 Jul ? 23:09:49 36° SSE 23:11:33 71° ENE 23:16:01 10° N visible
05 Jul ? 00:47:39 11° WSW 00:48:47 11° W 00:50:15 10° WNW visible
05 Jul ? 21:59:47 10° E 22:02:18 15° ENE 22:04:49 10° NNE visible
05 Jul ? 23:37:08 40° SSW 23:38:33 60° W 23:42:59 10° NNW visible
06 Jul ? 22:26:38 17° ESE 22:29:00 26° ENE 22:32:44 10° N visible
07 Jul ? 00:04:27 27° SW 00:05:38 31° W 00:09:38 10° NNW visible
07 Jul ? 22:53:56 29° SE 22:55:50 48° ENE 23:00:09 10° N visible
